SCP
1 1 1 2 2 2 2 1 1 1 1 1 1 1 0 0 0 0 0 0 1 1 1 1 1 1 1 1 1 0 0 0 0 0 0 0 0 0 0 0 1 1 1
1 1 1 1 2 2 2 2 1 1 1 1 1 1 1 0 0 0 0 0 1 1 1 1 1 1 1 1 1 0 0 0 0 0 0 0 0 0 0 1 1 1 1
1 1 1 1 1 2 2 2 1 1 1 1 1 1 1 0 0 0 0 0 1 1 1 1 1 1 1 1 1 0 0 0 0 0 0 0 0 0 0 0 1 1 1
1 1 1 1 1 1 2 2 1 1 1 1 1 1 1 1 0 0 0 0 1 1 1 1 1 1 1 1 1 1 0 0 0 0 0 0 0 0 0 0 0 1 1
1 1 1 1 1 1 1 1 1 1 1 1 1 1 1 1 0 0 0 1 1 1 1 1 1 1 1 1 1 1 0 0 0 0 0 0 0 0 0 0 0 1 1
1 1 1 1 1 1 1 1 1 1 1 1 1 1 1 1 0 0 0 0 1 1 1 1 1 1 1 1 1 0 0 0 0 0 0 0 0 0 0 0 0 1 1
1 1 1 1 0 0 0 1 1 1 1 1 1 1 1 1 0 0 0 0 1 1 1 1 1 1 0 0 0 0 0 0 0 0 0 0 0 0 0 0 0 0 1
0 0 1 1 1 0 0 1 1 1 1 1 1 1 1 0 0 0 0 0 0 1 1 1 1 0 0 0 0 0 0 0 0 0 0 0 0 0 0 0 0 0 0
0 0 1 1 1 0 0 1 1 1 1 0 0 0 0 0 0 0 0 0 0 0 1 1 0 0 0 0 0 0 0 0 0 0 0 0 0 0 0 0 0 0 0
0 1 1 1 1 0 0 0 1 1 1 0 0 0 0 0 0 0 0 0 0 0 0 0 0 0 0 0 0 0 0 0 0 0 0 0 0 0 0 0 0 0 0
0 0 1 1 0 0 0 0 1 1 1 0 0 0 0 0 0 0 0 0 0 0 0 0 0 0 0 0 0 0 0 0 0 0 0 0 0 0 0 0 0 0 0
0 0 0 0 0 0 0 0 1 1 1 0 0 0 0 0 0 0 0 0 0 0 0 0 0 0 0 0 0 0 0 0 0 0 0 0 0 0 0 0 0 0 0
0 0 0 0 0 0 0 0 1 1 0 0 0 0 0 0 0 0 0 0 0 0 0 0 0 0 0 0 0 0 0 0 0 0 0 0 0 0 0 0 0 0 0
0 0 0 0 0 0 0 0 1 1 0 0 0 0 0 0 0 0 0 0 0 0 0 0 0 0 0 0 0 0 0 0 0 0 0 0 0 0 0 0 0 0 0
0 0 0 0 0 0 0 0 0 0 0 0 0 0 0 0 0 0 1 0 0 0 0 0 0 0 0 0 0 0 0 0 0 0 0 0 0 0 0 0 0 0 0
0 0 0 0 0 0 1 0 0 0 0 0 0 0 0 0 0 0 0 0 0 0 0 0 0 0 0 0 0 0 0 0 0 0 0 0 0 0 0 0 0 0 0
0 0 0 0 0 0 1 0 0 0 0 0 0 0 0 0 0 0 0 0 0 0 0 0 0 0 0 0 0 0 0 0 0 0 0 0 0 0 0 0 0 0 0
0 0 0 0 0 0 0 0 0 0 0 0 0 0 0 0 0 0 0 0 0 0 0 0 0 0 0 0 0 0 0 0 0 0 0 0 0 0 0 0 0 0 0
0 0 0 0 0 0 0 0 0 0 0 0 0 0 0 0 0 0 0 0 0 0 0 0 0 0 0 0 0 0 0 0 0 0 0 0 0 0 0 0 0 0 0
0 0 0 0 0 0 0 0 0 0 0 0 0 0 0 0 0 0 0 0 0 0 0 0 0 0 0 0 0 0 0 0 0 0 0 0 0 0 0 0 0 0 0
0 0 0 1 1 0 0 0 0 0 1 0 0 0 0 0 0 0 0 0 0 0 0 0 0 0 0 0 0 0 0 0 0 0 0 0 0 0 0 0 0 0 0
0 0 0 1 1 0 0 0 0 0 0 0 0 0 0 0 0 0 0 0 0 0 0 0 0 0 0 0 0 0 0 0 0 0 0 0 0 0 0 0 0 0 0
0 0 0 1 1 0 0 0 0 0 1 1 0 0 0 0 0 0 0 0 0 0 0 0 0 0 0 0 0 0 0 0 0 0 0 0 0 0 0 0 0 0 0
0 0 0 0 0 0 0 0 0 0 1 1 0 0 0 0 0 0 0 0 0 0 0 0 0 0 0 0 0 0 0 0 0 0 0 0 0 0 0 0 0 0 0
0 0 0 0 0 0 0 0 0 0 0 1 0 0 0 0 0 0 0 0 0 0 0 0 0 0 0 0 0 0 0 0 0 0 0 0 0 0 0 0 0 0 0
0 0 0 0 0 0 0 0 0 0 0 0 0 0 0 0 0 0 0 0 0 0 0 0 0 0 0 0 0 0 0 0 0 0 0 0 0 0 0 0 0 0 0
Wind_Speed
3 2 2 2 2 2 3 3 3 3 3 3 3 3 3 2 2 1 0 1 2 2 3 5 5 5 5 5 5 4 4 4 4 4 4 4 4 5 4 5 5 5 5
3 3 2 2 2 2 3 3 4 3 3 3 2 2 2 2 2 1 1 1 1 2 2 3 4 4 5 5 4 4 3 4 3 3 3 3 3 4 4 4 4 5 5
4 3 3 2 2 2 3 3 3 3 3 3 2 2 2 2 2 2 1 1 1 1 2 2 3 3 4 4 4 3 3 3 3 3 3 2 3 3 3 3 4 4 4
4 3 3 3 3 3 3 3 3 3 2 2 2 2 1 2 2 2 1 1 1 1 2 3 2 2 3 3 4 4 3 3 3 3 3 3 3 3 2 2 2 3 3
4 4 3 3 3 3 3 3 3 3 3 3 2 2 1 1 2 2 1 1 1 2 1 2 3 3 2 2 3 3 3 3 3 3 3 3 3 3 3 2 2 2 3
4 4 3 3 3 3 3 3 3 3 2 3 3 3 2 1 1 1 1 1 1 2 2 2 1 2 3 3 3 3 2 3 2 2 2 2 3 3 3 3 3 3 3
4 4 3 3 3 3 4 4 3 4 2 2 3 2 2 2 2 1 1 1 1 2 2 2 1 1 1 3 4 3 3 2 2 1 1 2 2 2 3 3 2 3 3
4 4 4 3 3 3 3 4 4 3 2 2 3 3 1 1 1 0 1 1 0 1 2 2 2 2 1 1 3 4 3 3 3 2 2 2 3 3 3 3 3 4 3
3 3 4 3 3 3 3 4 4 5 4 2 2 3 4 4 1 0 0 1 1 1 1 1 2 2 2 1 1 2 3 3 3 2 2 2 3 4 4 4 4 4 4
3 3 3 4 3 3 3 3 3 3 5 4 1 1 1 3 4 2 1 0 1 1 1 1 1 1 1 1 1 3 3 3 3 3 3 3 4 4 4 5 5 4 4
3 3 3 3 3 2 3 2 2 3 3 4 3 2 2 1 1 3 2 0 1 0 0 1 1 1 1 1 1 2 3 3 3 3 3 4 4 4 5 5 5 5 5
2 3 3 3 2 2 2 2 2 3 3 3 3 2 3 3 2 3 3 2 1 0 0 0 1 0 0 0 1 3 3 4 4 4 4 4 4 5 5 5 5 5 5
2 3 3 2 2 2 2 2 2 2 2 3 3 2 2 2 2 3 3 2 1 0 1 0 1 0 0 0 0 2 2 3 4 4 4 4 4 5 6 6 6 6 6
2 3 3 3 2 2 2 2 2 2 2 2 2 2 1 1 1 2 3 4 2 0 0 1 1 1 1 0 1 1 1 3 3 4 4 4 4 5 5 6 6 7 7
3 4 4 4 3 2 2 3 2 2 2 2 2 2 1 1 1 1 2 3 4 3 2 2 1 1 1 1 0 0 0 2 3 4 4 4 4 4 5 6 6 6 7
3 4 4 4 3 3 3 3 2 2 3 2 2 2 2 1 1 1 1 1 2 3 2 2 2 1 1 0 1 0 1 3 3 3 3 3 3 4 5 5 6 6 7
4 5 5 5 4 4 3 3 3 3 3 2 2 2 2 1 1 1 1 1 1 2 2 1 0 0 1 0 1 1 1 1 1 4 4 4 4 4 5 6 6 6 7
4 5 5 5 5 4 4 4 4 3 3 3 2 2 2 2 2 1 1 1 1 1 2 2 1 0 0 1 0 1 2 2 2 4 4 5 5 5 5 6 6 7 8
5 4 5 5 5 5 4 4 4 4 3 3 3 2 2 2 2 1 1 1 1 1 1 2 1 0 0 0 1 1 1 2 3 4 5 5 5 6 6 7 7 8 8
5 5 4 4 5 5 4 4 4 4 3 3 2 2 2 2 3 2 2 2 2 1 1 1 1 1 0 1 0 1 2 2 2 3 4 4 5 6 7 8 8 8 8
5 5 5 4 4 4 4 5 4 4 4 3 2 1 1 2 2 2 2 2 2 2 1 1 1 1 1 1 1 1 2 2 2 2 2 2 3 3 4 6 8 8 9
5 5 5 4 4 3 5 6 5 4 4 3 2 1 1 1 2 2 2 2 2 2 2 2 2 2 3 2 2 2 1 2 3 1 1 3 2 3 3 3 8 10 9
5 5 4 4 4 4 6 6 5 4 3 3 2 2 1 1 1 1 1 1 0 1 3 3 3 3 3 3 2 2 2 3 4 2 2 4 2 4 3 5 10 10 10
5 5 4 4 3 3 5 6 6 4 3 2 2 2 2 2 2 2 2 1 0 1 1 1 3 3 2 2 3 3 3 2 2 2 2 3 3 4 4 4 9 10 10
5 4 4 4 4 3 4 5 5 3 3 2 2 2 3 2 3 2 2 2 1 1 1 1 2 2 2 2 2 0 1 1 3 3 2 2 3 4 4 4 6 9 9
4 4 3 3 4 3 5 5 5 3 3 2 1 2 3 3 3 3 3 3 2 2 1 1 1 2 2 2 2 2 2 2 2 3 2 2 2 3 4 3 3 4 5
Wind_Direction
160 154 155 153 151 141 143 141 140 138 135 132 136 137 138 136 131 129 56 109 137 138 144 144 139 135 127 119 115 112 108 100 90 79 70 64 57 51 51 46 39 39 43
164 161 162 162 164 159 153 152 152 148 145 140 136 140 142 140 135 131 99 68 106 120 132 149 145 139 136 131 121 113 106 97 87 82 71 62 55 52 50 46 41 37 37
165 164 167 174 180 164 149 140 139 137 140 139 138 137 132 133 135 133 107 85 96 97 114 139 145 142 140 138 131 123 108 97 86 70 58 56 56 51 46 39 37 32 30
169 166 171 182 175 161 155 153 151 148 150 147 145 144 134 125 125 130 111 93 108 102 97 96 99 111 125 123 114 107 96 86 82 71 55 50 47 35 29 21 22 20 16
173 171 179 182 167 159 161 165 153 151 154 149 142 123 112 119 131 127 119 106 122 126 119 98 86 79 81 95 99 100 91 80 73 66 59 54 44 30 18 4 359 3 356
171 170 173 175 165 159 162 163 154 141 139 141 123 97 80 100 112 122 137 100 122 129 118 104 92 67 67 70 69 62 56 62 63 62 60 49 34 22 9 5 8 356 345
165 167 167 168 169 172 176 169 154 140 124 126 112 94 46 52 85 99 125 121 113 130 117 106 99 92 68 59 56 53 36 24 38 49 47 26 2 350 343 342 344 341 345
165 167 166 172 173 169 169 170 157 142 139 149 136 128 129 12 351 56 108 133 127 124 119 112 108 100 91 75 41 42 31 13 11 21 16 355 341 329 325 327 324 324 330
165 161 164 164 170 171 177 176 168 158 159 163 144 148 155 189 189 321 90 111 104 119 129 127 111 93 84 77 52 27 25 8 349 342 342 338 327 322 318 320 319 318 319
159 158 156 158 162 165 170 178 174 166 159 168 161 115 138 144 151 157 336 40 93 111 142 129 119 104 87 78 44 30 24 5 343 335 332 328 322 320 319 325 328 325 329
145 146 152 155 157 163 170 164 165 162 160 165 164 149 120 88 111 139 165 188 35 354 154 152 137 126 99 81 56 25 20 7 350 341 338 342 342 341 335 331 333 327 323
143 141 143 151 156 155 164 166 164 158 163 160 160 159 155 154 165 147 152 162 176 296 326 170 168 171 120 77 42 30 24 10 355 343 334 338 342 341 340 336 333 325 319
159 163 152 148 146 146 150 150 153 154 157 158 163 170 166 174 162 153 144 149 144 133 7 305 234 204 141 119 358 21 17 9 358 345 329 336 351 352 347 339 335 330 324
172 162 154 146 144 146 141 139 131 137 137 144 148 146 138 154 154 158 156 147 139 147 236 260 270 221 200 193 350 16 4 4 360 355 344 344 356 355 348 341 335 333 327
158 153 145 140 142 141 142 142 130 131 129 129 132 126 112 106 120 133 145 152 157 172 216 224 233 241 222 189 341 278 312 351 353 353 352 352 358 352 343 337 336 333 328
154 152 149 144 137 134 139 132 122 121 115 108 116 112 104 101 98 103 122 122 144 163 187 206 221 219 220 306 346 346 307 345 342 337 338 339 343 335 329 326 328 328 326
160 160 155 147 139 140 141 132 125 122 120 102 91 112 104 94 103 97 97 107 126 136 170 229 262 210 169 223 321 330 330 315 310 323 323 322 322 322 319 317 318 319 317
158 159 157 151 148 144 144 145 142 137 140 137 129 121 117 108 100 100 109 125 152 156 164 197 242 295 242 250 293 326 332 331 314 317 318 316 316 315 314 312 312 314 313
147 145 148 153 153 152 152 152 149 149 151 152 151 146 143 130 125 123 124 133 150 152 157 170 199 208 271 303 2 330 317 312 311 315 312 309 313 316 315 313 312 311 309
147 144 144 147 149 148 148 146 139 136 132 134 134 140 148 158 164 163 161 157 147 138 139 157 191 209 248 276 172 297 312 309 306 312 303 305 310 311 309 308 307 303 300
145 141 135 135 139 142 146 145 143 138 136 131 122 129 141 156 164 165 163 171 163 160 158 171 204 209 230 230 252 252 277 299 296 285 287 294 298 293 294 298 298 295 295
136 133 137 140 142 150 145 145 146 140 140 140 140 132 122 142 126 107 118 154 181 184 193 200 221 226 239 231 231 244 264 300 294 276 284 295 293 287 286 281 292 296 296
137 136 143 145 150 158 154 151 152 147 146 152 155 160 151 136 108 133 114 81 39 247 217 210 216 231 230 225 216 242 247 253 266 268 279 281 275 272 275 285 296 295 297
145 146 146 148 145 153 156 156 152 146 142 154 168 179 180 188 183 161 142 124 150 277 252 223 212 228 230 223 216 228 240 262 276 271 244 268 275 273 285 279 285 287 295
143 146 148 150 151 162 165 163 155 145 147 162 179 185 186 198 198 186 160 169 200 291 341 296 273 272 280 282 271 200 235 279 288 276 234 242 270 290 284 269 272 283 293
142 141 139 148 158 173 179 177 173 160 161 169 177 191 201 208 211 205 190 187 214 248 252 313 327 317 292 260 254 216 208 237 276 276 232 233 272 304 296 266 268 282 287